KW1M Weather Reports


Display with metric or nautical units.
time (UTC)temp
F
wind
direction
speed
MPH
gust
MPH
rain 1hr
in
rain 24hr
in
rain mn
in
humidity
%
barometer
mb
20260903224512 69 82 0.0 0.0 0.00 0.28 0.28 89 1012.2
20260903223011 70 109 0.0 0.0 0.00 0.28 0.28 87 1012.5
20260903221509 72 109 0.0 0.0 0.00 0.28 0.28 86 1012.6
20260903220008 72 124 0.0 0.0 0.00 0.28 0.28 84 1012.6
20260903214508 73 124 0.0 0.0 0.00 0.28 0.28 82 1012.5
20260903213007 74 172 0.0 2.0 0.00 0.28 0.28 79 1012.5
20260903211503 74 94 0.0 0.0 0.00 0.28 0.28 81 1012.6
20260903210139 73 156 0.0 1.0 0.00 0.28 0.28 81 1012.6
20260903204604 72 150 0.0 3.0 0.00 0.28 0.28 83 1012.8
20260903203052 70 161 0.0 0.0 0.00 0.28 0.28 85 1012.9
20260903201550 70 166 0.0 2.0 0.00 0.28 0.28 86 1013.1
20260903200100 70 146 0.0 0.0 0.00 0.28 0.28 86 1013.2
20260903194547 70 242 0.0 3.0 0.00 0.28 0.28 85 1013.3
20260903193044 70 129 0.0 2.0 0.00 0.28 0.28 86 1013.3
20260903191541 70 346 0.0 2.0 0.00 0.28 0.28 88 1013.4
20260903190040 69 168 0.0 4.0 0.00 0.28 0.28 89 1013.6
20260903184537 69 107 0.0 2.0 0.00 0.28 0.28 89 1013.7
20260903183038 67 54 0.0 0.0 0.00 0.28 0.28 92 1013.8
20260903181529 66 142 0.0 0.0 0.00 0.28 0.28 92 1014.1
20260903180028 66 219 0.0 4.0 0.00 0.28 0.28 93 1014.2
20260903174527 65 150 1.0 2.0 0.00 0.28 0.28 93 1014.1
20260903173027 65 200 0.0 3.0 0.00 0.28 0.28 94 1014.4
20260903171525 66 158 0.0 0.0 0.00 0.28 0.28 94 1014.4
20260903170036 66 169 0.0 0.0 0.00 0.28 0.28 94 1014.3
20260903164524 66 83 0.0 0.0 0.00 0.28 0.28 95 1014.3
20260903163032 64 117 0.0 0.0 0.00 0.28 0.28 96 1014.4
20260903161518 64 158 0.0 0.0 0.00 0.28 0.28 97 1014.5
20260903160015 63 136 0.0 0.0 0.00 0.28 0.28 97 1014.5
20260903154512 62 95 0.0 0.0 0.00 0.28 0.28 97 1014.7
20260903153009 62 93 0.0 0.0 0.00 0.28 0.28 97 1015.0
20260903151510 62 144 0.0 0.0 0.00 0.28 0.28 97 1015.1
20260903150007 62 158 0.0 0.0 0.00 0.28 0.28 97 1015.4
20260903144505 61 158 0.0 0.0 0.00 0.28 0.28 97 1015.3
20260903143003 61 158 0.0 0.0 0.00 0.28 0.28 97 1015.3
20260903141502 61 158 0.0 0.0 0.00 0.28 0.28 98 1015.5
20260903140001 61 131 0.0 0.0 0.00 0.28 0.28 98 1015.5
20260903134601 60 8 0.0 0.0 0.00 0.28 0.28 98 1015.6
20260903133104 60 126 0.0 0.0 0.00 0.28 0.28 98 1015.4
20260903131609 60 11 0.0 0.0 0.00 0.28 0.28 98 1015.5
20260903130059 60 143 0.0 0.0 0.00 0.28 0.28 98 1015.5
20260903124610 59 134 0.0 0.0 0.00 0.28 0.28 98 1015.7
20260903123054 59 131 0.0 0.0 0.00 0.28 0.28 97 1016.0
20260903121553 59 162 0.0 3.0 0.00 0.28 0.28 97 1016.1
20260903120100 59 126 0.0 3.0 0.00 0.28 0.28 97 1016.1
20260903114551 59 127 0.0 4.0 0.01 0.28 0.28 97 1016.3
20260903113056 59 144 0.0 3.0 0.01 0.28 0.28 97 1016.3
20260903111549 59 226 0.0 5.0 0.01 0.28 0.28 97 1016.2
20260903110049 59 106 0.0 3.0 0.02 0.28 0.28 97 1016.1
20260903104549 59 121 0.0 2.0 0.02 0.28 0.28 97 1016.2
20260903103046 59 118 0.0 3.0 0.03 0.28 0.28 97 1016.3
20260903101555 59 148 0.0 4.0 0.03 0.28 0.28 97 1016.3
20260903100044 59 170 0.0 5.0 0.02 0.27 0.27 97 1016.3
20260903094607 59 131 0.0 3.0 0.01 0.26 0.26 97 1016.3
20260903093046 59 338 0.0 1.0 0.00 0.25 0.25 97 1016.3
20260903091544 59 38 0.0 1.0 0.00 0.25 0.25 97 1016.3
20260903090039 59 137 0.0 0.0 0.08 0.25 0.25 97 1016.7
20260903084538 59 348 0.0 2.0 0.15 0.25 0.25 96 1016.9
20260903083041 59 18 0.0 1.0 0.25 0.25 0.25 96 1016.6
20260903081537 59 291 0.0 4.0 0.25 0.25 0.25 96 1016.9
20260903080049 60 146 1.0 3.0 0.17 0.17 0.17 96 1017.3
20260903074533 60 259 0.0 6.0 0.10 0.11 0.10 96 1016.8
20260903073033 60 113 0.0 2.0 0.00 0.01 0.00 96 1016.7
20260903071531 60 176 1.0 7.0 0.00 0.01 0.00 96 1016.9
20260903070031 60 72 1.0 5.0 0.00 0.01 0.00 96 1017.0
20260903064529 60 279 1.0 6.0 0.00 0.01 0.00 96 1017.1
20260903063025 61 117 1.0 5.0 0.00 0.01 0.00 96 1017.4
20260903061522 61 122 0.0 4.0 0.00 0.01 0.00 96 1018.3
20260903060021 61 124 0.0 3.0 0.00 0.01 0.00 96 1018.6
20260903054519 61 131 0.0 5.0 0.00 0.01 0.00 96 1019.0
20260903053017 61 115 0.0 5.0 0.00 0.01 0.00 96 1019.0
20260903051516 61 165 0.0 3.0 0.00 0.01 0.00 96 1018.8
20260903050023 61 107 0.0 6.0 0.00 0.01 0.00 96 1019.0
20260903044521 61 105 1.0 7.0 0.00 0.01 0.00 96 1018.8
20260903043013 61 126 0.0 6.0 0.00 0.01 0.00 96 1018.9
20260903041513 61 120 0.0 4.0 0.00 0.01 0.00 96 1019.1
20260903040009 61 117 0.0 5.0 0.00 0.01 0.00 95 1019.2
20260903034507 61 124 0.0 3.0 0.00 0.01 0.01 95 1019.3
20260903033004 61 122 0.0 4.0 0.00 0.01 0.01 95 1019.7
20260903031504 61 52 0.0 3.0 0.00 0.01 0.01 95 1020.1
20260903030003 61 142 0.0 3.0 0.00 0.01 0.01 95 1020.1
20260903024503 61 96 0.0 4.0 0.00 0.01 0.01 95 1020.1
20260903023003 61 144 0.0 5.0 0.00 0.01 0.01 95 1020.1
20260903021502 61 325 0.0 3.0 0.00 0.01 0.01 95 1020.1
20260903020002 61 122 1.0 8.0 0.00 0.01 0.01 94 1020.4
20260903014500 61 166 1.0 5.0 0.00 0.01 0.01 94 1020.6
20260903013100 61 114 0.0 6.0 0.00 0.01 0.01 94 1020.5
20260903011600 61 314 0.0 5.0 0.00 0.01 0.01 94 1020.6
20260903010059 61 125 0.0 7.0 0.00 0.01 0.01 93 1020.0
20260903004600 62 128 0.0 5.0 0.00 0.01 0.01 93 1020.0
20260903003058 62 106 0.0 5.0 0.00 0.01 0.01 92 1020.1
20260903001604 62 88 0.0 4.0 0.00 0.01 0.01 91 1019.8
20260903000056 62 110 0.0 2.0 0.00 0.01 0.01 90 1020.3
20260902234552 63 8 0.0 1.0 0.00 0.01 0.01 88 1020.5
20260902233052 63 128 0.0 5.0 0.00 0.01 0.01 88 1020.6
20260902231552 63 138 0.0 2.0 0.00 0.01 0.01 87 1021.1
20260902230051 63 13 0.0 4.0 0.00 0.01 0.01 86 1021.2
20260902224556 64 307 0.0 0.0 0.00 0.01 0.01 85 1021.3